www.pogodaiklimat.ru

Погода и климат >> Архив погоды >> Дания >> Хальд V


ПОГОДА в Хальде V

  • Прогноз погоды в Хальде V
  • Монитор погоды в Хальде V

АРХИВ ПОГОДЫ в Хальде V

Время (UTC), дата Ветер
(напр.,м/с)
 
Видим.   Явления Облачность Т
(С)
Тd
(С)
f
(%)
Тe
(С)
Тes
(С)
Комфортность P
(гПа)
Po
(гПа)
Тmin
(С)
Tmax
(С)
R
(мм)
R24
(мм)
S
(см)
22 8.06 Ю 7 8000 м слаб. ливневой дождь 9/9 540 м
[]
+11.0 +10.5 97 +7 +7 1013.2 1002.5
23 8.06 Ю 7 10 км слаб. ливневой дождь 9/9 480 м
[]
+11.0 +10.5 97 +7 +7 1013.4 1002.7
00 9.06 Ю 8
{13}
16 км слаб. ливневой дождь 9/9 600 м
[]
+11.1 +10.4 95 +7 +7 1013.4 1002.6
01 9.06 Ю 7 12 км слаб. ливневой дождь 9/9 500 м
[]
+11.3 +10.6 95 +8 +8 1013.4 1002.7
02 9.06 Ю 7 5000 м слаб. ливневой дождь 9/9 240 м
[]
+11.1 +10.9 99 +8 +8 1013.6 1002.8
03 9.06 ЮЗ 8
{12}
16 км {ливн. осадки} 9/9 360 м
[]
+10.8 +10.1 95 +7 +7 1014.2 1003.5
04 9.06 Ю 7 7000 м слаб. ливневой дождь {морось} 9/9 330 м
[]
+10.5 +10.0 97 +7 +7 1014.2 1003.4
05 9.06 Ю 8 13 км слаб. ливневой дождь 9/9 180 м
[]
+10.6 +10.2 97 +7 +7 1014.4 1003.7
06 9.06 ЮЗ 7
{14}
7000 м дымка {ливн. осадки} 9/9 240 м
[]
+11.2 +10.8 97 +8 +8 1015.6 1004.8 +10.4 +13.0
07 9.06 ЮЗ 6 8000 м слаб. дождь 9/9 150 м
[]
+11.8 +11.4 97 +9 +9 1016.7 1006.0
08 9.06 ЮЗ 7 10 км слаб. ливневой дождь 9/9 300 м
[]
+11.4 +11.0 97 +8 +8 1018.2 1007.4
09 9.06 ЮЗ 8-13
{13}
17 км {ливн. осадки, дождь} 9/9 420 м
[]
+13.2 +10.7 85 +10 +11 1019.0 1008.3
10 9.06 ЮЗ 9 27 км 6/6 600 м
[]
+14.8 +9.8 72 +13 +13 1019.9 1009.3
11 9.06 ЮЗ 6 30 км 6/6 800 м
[]
+14.3 +9.2 71 +12 +15 1020.3 1009.6
12 9.06 ЮЗ 7
{13}
28 км {ливн. осадки, дождь} 1/1 1200 м
[]
+16.2 +8.5 60 +15 +18 1020.6 1009.9
13 9.06 ЮЗ 7 30 км 4/4 1260 м
[]
+16.5 +7.2 54 +15 +18 1021.0 1010.3
14 9.06 ЮЗ 6 25 км 1/1 1470 м
[]
+16.5 +7.5 55 +15 +19 1021.1 1010.5
15 9.06 ЮЗ 6 40 км 4/4 1320 м
[]
+15.7 +8.1 61 +14 +17 1021.3 1010.6
16 9.06 ЮЗ 6 35 км 6/6 1500 м
[]
+15.2 +9.1 67 +14 +15 1021.6 1010.9
17 9.06 ЮЗ 4 35 км 9/9 1140 м
[]
+14.3 +9.7 74 +13 +13 1021.5 1010.8
18 9.06 ЮЗ 5 30 км ясно +14.9 +9.0 68 +14 +14 1021.6 1010.9 +11.2 +17.5
19 9.06 ЮЗ 3 35 км ясно +13.3 +9.2 76 +12 +13 1021.8 1011.0
20 9.06 ЮЗ 2 45 км 1/0
[]
+11.9 +8.9 82 +11 +11 1022.1 1011.3
21 9.06 ЮЗ 2 40 км 6/0
[]
+10.8 +8.6 86 +9 +9 1022.1 1011.2
22 9.06 ЮЗ 2 35 км 9/0
[]
+10.8 +8.6 86 +10 +10 1022.3 1011.5
23 9.06 ЮЗ 2 30 км 1/0
[]
+9.5 +8.3 92 +8 +8 1022.2 1011.3
00 10.06 ЮЗ 2 30 км ясно +9.1 +8.0 93 +8 +8 1022.3 1011.4
01 10.06 З 2 25 км ясно +8.9 +8.1 95 +7 +7 1022.1 1011.2
02 10.06 З 2 19 км ясно +9.2 +8.7 97 +8 +8 1021.8 1010.9
03 10.06 СЗ 1 13 км ясно +9.3 +9.1 99 +8 +8 1021.6 1010.7
04 10.06 штиль 0 8000 м дымка ясно +9.6 +9.2 97 +9 +9 1021.8 1010.9
05 10.06 С 1 12 км ясно +11.6 +10.6 94 +11 +13 1021.6 1010.8
06 10.06 СВ 1 14 км {дымка} 4/0
[]
+11.8 +10.6 92 +12 +15 1021.3 1010.5 +8.1 +14.9
07 10.06 СВ 2 29 км ясно +14.2 +11.1 82 +14 +21 1021.1 1010.4
08 10.06 СВ 3 30 км ясно +13.9 +10.6 80 +13 +22 1021.0 1010.3
09 10.06 В 3 30 км 1/0
[]
+15.3 +10.4 73 +15 +24 1020.7 1010.0
10 10.06 В 4 29 км 4/0
[]
+14.9 +11.4 80 +14 +21 1020.7 1010.0
11 10.06 В 4 30 км 6/0
[]
+15.0 +11.5 80 +14 +21 1020.6 1009.9
12 10.06 В 5 22 км 4/4 1470 м
[]
+14.5 +11.0 80 +13 +18 1020.3 1009.7
13 10.06 В 5 26 км 4/4 930 м
[]
+14.7 +11.2 80 +13 +17 1020.1 1009.4
14 10.06 СВ 4 20 км 9/9 1020 м
[]
+14.5 +11.3 81 +13 +14 1019.8 1009.2
15 10.06 СВ 4 30 км в посл. час дождь {ливн. осадки} 9/0 2000 м
[]
+13.9 +11.0 83 +13 +16 1019.6 1008.9
16 10.06 СВ 3 30 км 9/9 1500 м
[]
+13.7 +10.3 80 +13 +13 1019.0 1008.3
17 10.06 СВ 5 30 км 9/0 2000 м
[]
+14.4 +10.7 78 +13 +14 1018.4 1007.7
18 10.06 СВ 4 29 км {ливн. осадки, дождь} 6/0
[]
+14.3 +11.0 81 +13 +14 1018.3 1007.6 +11.8 +15.9
19 10.06 СВ 5 35 км 6/0
[]
+13.2 +10.1 81 +11 +11 1018.2 1007.5
20 10.06 СВ 4 30 км 9/0
[]
+12.2 +9.9 86 +10 +10 1018.2 1007.5
21 10.06 СВ 4 35 км 6/0
[]
+12.1 +10.3 89 +10 +10 1018.0 1007.2
22 10.06 СВ 4 35 км 9/0 2000 м
[]
+12.3 +9.6 84 +10 +10 1017.4 1006.7
23 10.06 СВ 3 40 км 9/0 2000 м
[]
+11.8 +8.4 80 +10 +10 1017.3 1006.5
00 11.06 СВ 4 40 км 10/0
[]
+12.1 +8.4 78 +10 +10 1016.7 1006.0
01 11.06 СВ 5 35 км 9/9 1500 м
[]
+12.5 +10.4 87 +10 +10 1016.4 1005.7
02 11.06 С 4 35 км 10/10 1410 м
[]
+12.9 +10.7 86 +11 +11 1015.5 1004.8
03 11.06 СВ 5 35 км 9/9 1470 м
[]
+13.2 +11.1 87 +11 +11 1015.2 1004.5
04 11.06 СВ 5 30 км 6/6 1470 м
[]
+13.5 +11.5 88 +11 +12 1014.6 1004.0
05 11.06 СВ 6 35 км 9/0 2000 м
[]
+14.1 +11.7 85 +12 +12 1014.4 1003.8
06 11.06 СВ 6 35 км 9/9 960 м
[]
+14.5 +11.7 83 +13 +13 1014.0 1003.4 +11.7 +14.6
07 11.06 СВ 7 35 км 9/9 1500 м
[]
+14.9 +11.4 80 +13 +13 1013.7 1003.1
08 11.06 СВ 8 30 км 9/9 480 м
[]
+14.8 +12.4 86 +13 +13 1013.7 1003.1
09 11.06 СВ 6 24 км 10/10 180 м
[]
+14.1 +13.0 93 +12 +12 1013.7 1003.1
10 11.06 СВ 7 21 км 10/10 120 м
[]
+15.0 +13.7 92 +13 +13 1013.3 1002.7
11 11.06 СВ 7 18 км 9/9 210 м
[]
+15.5 +13.8 90 +14 +14 1013.4 1002.8
12 11.06 СВ 7 24 км 6/6 300 м
[]
+15.5 +13.5 88 +14 +15 1013.0 1002.4
13 11.06 СВ 7 24 км слаб. ливневой дождь 6/6 400 м
[]
+15.3 +13.9 91 +14 +15 1013.0 1002.4
14 11.06 СВ 6 25 км в посл. час дождь {ливн. осадки} 9/9 270 м
[]
+15.4 +14.1 92 +14 +14 1012.6 1002.0
15 11.06 СВ 6 20 км слаб. дождь 10/10 630 м
[]
+16.3 +14.7 90 +15 +15 1012.4 1001.8
16 11.06 В 6 19 км в посл. час дождь {ливн. осадки} 9/9 570 м
[]
+16.2 +15.0 93 +15 +15 1012.3 1001.8
17 11.06 В 5 18 км 9/9 630 м
[]
+17.0 +15.8 93 +16 +16 1012.2 1001.6
18 11.06 В 5 22 км {ливн. осадки, дождь} 9/9 630 м
[]
+18.4 +16.9 91 +19 +19 1012.1 1001.7 +14.0 +18.4
19 11.06 ЮВ 4 20 км 9/9 400 м
[]
+18.3 +16.7 90 +19 +19 1012.6 1002.2
20 11.06 ЮВ 4 10 км 10/10 300 м
[]
+17.5 +16.7 95 +17 +17 1013.5 1003.0
21 11.06 ЮВ 4 4000 м дымка 10/10 150 м
[]
+16.9 +16.7 99 +16 +16 1014.1 1003.6
22 11.06 ЮВ 3 7000 м дымка 9/9 90 м
[]
+16.5 +16.4 99 +16 +16 1014.3 1003.7
23 11.06 В 4 6000 м в посл. час морось {ливн. осадки, дождь} 10/10 180 м
[]
+16.5 +16.5 100 +16 +16 1013.8 1003.2
00 12.06 В 4 2300 м дымка {ливн. осадки, дождь} 10/10 30 м
[]
+15.7 +15.7 100 +15 +15 1014.3 1003.7
01 12.06 В 4 4200 м дымка 10/10 60 м
[]
+15.4 +15.4 100 +14 +14 1015.0 1004.4
02 12.06 В 3 9000 м дымка 10/10 270 м
[]
+14.8 +14.7 99 +14 +14 1014.7 1004.1
03 12.06 В 3 12 км {дымка} 10/10 270 м
[]
+14.5 +14.2 98 +13 +13 1013.9 1003.3
04 12.06 В 6 13 км 10/10 270 м
[]
+14.1 +13.8 98 +12 +12 1014.1 1003.5
05 12.06 СВ 4 14 км 10/10 150 м
[]
+14.0 +13.7 98 +12 +12 1013.9 1003.2
06 12.06 СВ 5 13 км {ливн. осадки, дождь} 9/9 120 м
[]
+13.7 +13.5 99 +12 +12 1012.6 1002.0 +13.6 +18.7
07 12.06 СВ 6 7000 м слаб. дождь 9/9 150 м
[]
+13.4 +13.2 99 +11 +11 1012.0 1001.4
08 12.06 В 6 8000 м слаб. дождь 10/10 90 м
[]
+13.6 +13.5 99 +11 +11 1013.3 1002.6
09 12.06 СВ 4 6000 м в посл. час дождь {ливн. осадки} 10/10 30 м
[]
+14.6 +14.6 100 +13 +13 1012.8 1002.2
10 12.06 СВ 5 11 км 10/10 60 м
[]
+14.6 +14.5 99 +13 +13 1012.8 1002.2
11 12.06 СВ 5 15 км 9/9 90 м
[]
+15.1 +14.8 98 +14 +14 1012.9 1002.3
12 12.06 СВ 5 14 км {ливн. осадки, дождь} 10/10 90 м
[]
+14.3 +14.1 99 +12 +12 1012.4 1001.8
13 12.06 СВ 5 4500 м в посл. час морось {ливн. осадки, дождь} 10/10 60 м
[]
+13.8 +13.8 100 +12 +12 1012.4 1001.8
14 12.06 СВ 6 4900 м дымка 10/10 30 м
[]
+13.9 +13.9 100 +12 +12 1011.6 1001.0
15 12.06 СВ 5 5000 м дымка {ливн. осадки, дождь} 10/10 30 м
[]
+14.0 +14.0 100 +12 +12 1011.3 1000.7
16 12.06 СВ 5 2000 м дымка 10/10 30 м
[]
+14.0 +14.0 100 +12 +12 1010.0 999.4
17 12.06 СВ 5 6000 м дымка 10/10 30 м
[]
+14.5 +14.5 100 +13 +13 1009.2 998.7
18 12.06 СВ 4 14 км {ливн. осадки, дождь} 10/10 420 м
[]
+15.0 +14.9 99 +14 +14 1009.0 998.5 +13.3 +15.2
19 12.06 В 7 14 км {ливн. осадки, дождь} 10/10 270 м
[]
+15.0 +14.6 97 +13 +13 1008.7 998.1
20 12.06 В 5 1700 м сильн. дождь 9/9 150 м
[]
+14.7 +14.5 99 +13 +13 1008.7 998.1
21 12.06 В 6
{10}
2700 м в посл. час дождь {ливн. осадки} 10/10 90 м
[]
+14.5 +14.5 100 +13 +13 1007.7 997.1
22 12.06 В 5 2100 м дымка 10/10 30 м
[]
+14.8 +14.8 100 +13 +13 1007.9 997.4
23 12.06 ЮВ 4 1700 м дымка 10/10 60 м
[]
+15.6 +15.6 100 +15 +15 1007.5 997.0
00 13.06 Ю 5
{10}
800 м туман {ливн. осадки, дождь} ?/? +15.4 +15.4 100 +14 +14 1007.3 996.8
01 13.06 ЮЗ 5 4300 м в посл. час туман 9/9 30 м
[]
+15.3 +15.3 100 +14 +14 1007.2 996.7
02 13.06 ЮЗ 4 4700 м дымка 10/10 240 м
[]
+15.0 +15.0 100 +14 +14 1007.1 996.5
03 13.06 ЮЗ 5 5000 м дымка {туман} 4/4 300 м
[]
+12.6 +12.4 99 +10 +10 1008.1 997.5
04 13.06 ЮЗ 6 9000 м дымка 10/10 300 м
[]
+12.4 +11.7 95 +10 +10 1009.2 998.5
05 13.06 ЮЗ 4 11 км 9/9 450 м
[]
+13.1 +12.3 95 +11 +11 1009.7 999.1
06 13.06 ЮЗ 5
{10}
25 км {туман, дымка} 6/6 420 м
[]
+13.4 +12.1 92 +11 +12 1010.2 999.5 +12.4 +15.6
07 13.06 ЮЗ 5 24 км 1/1 450 м
[]
+14.4 +12.1 86 +13 +16 1010.4 999.9
08 13.06 ЮЗ 6 28 км 1/1 450 м
[]
+14.9 +11.5 80 +13 +17 1011.0 1000.4
09 13.06 ЮЗ 5 30 км 1/1 750 м
[]
+16.3 +11.5 73 +15 +21 1011.1 1000.6
10 13.06 ЮЗ 4 30 км 6/6 870 м
[]
+17.6 +12.2 71 +17 +22 1011.6 1001.1
11 13.06 Ю 4 30 км 6/6 930 м
[]
+18.3 +12.1 67 +19 +23 1011.6 1001.2
12 13.06 ЮВ 5 19 км 6/6 700 м
[]
+17.8 +13.2 74 +17 +20 1011.8 1001.3
13 13.06 ЮВ 7 21 км 4/4 750 м
[]
+18.1 +13.3 74 +17 +20 1011.8 1001.3
14 13.06 Ю 7 24 км 1/1 1020 м
[]
+19.6 +13.1 66 +21 +23 комфорт 1011.8 1001.3
15 13.06 Ю 6 29 км 1/1 1080 м
[]
+19.7 +12.9 65 +21 +24 комфорт 1011.9 1001.5
16 13.06 ЮЗ 6 35 км 6/6 1380 м
[]
+19.6 +10.1 54 +20 +21 1012.4 1002.0
17 13.06 Ю 4 35 км 9/0 2000 м
[]
+18.7 +10.1 57 +19 +20 1012.9 1002.4
18 13.06 ЮЗ 3 35 км 6/0 2000 м
[]
+18.5 +11.1 62 +19 +20 1013.4 1002.9 +13.3 +20.4
19 13.06 ЮВ 2 35 км 4/4 1500 м
[]
+16.9 +12.1 73 +17 +18 1013.9 1003.3
20 13.06 ЮВ 2 35 км ясно +14.7 +11.6 82 +14 +14 1014.3 1003.7
21 13.06 ЮВ 2 45 км 1/1 1500 м
[]
+14.5 +10.4 76 +14 +14 1014.7 1004.1
22 13.06 ЮВ 3 45 км 4/4 1500 м
[]
+13.6 +10.2 80 +12 +12 1014.8 1004.1
23 13.06 ЮВ 4 40 км ясно +13.1 +10.9 86 +11 +11 1014.5 1003.8
00 14.06 В 3 30 км 1/0
[]
+13.3 +11.8 91 +12 +12 1014.6 1003.9
01 14.06 Ю 3 н/о {дождь} 9/9 400 м
[]
+13.9 +12.5 91 +13 +13 1015.4 1004.8
02 14.06 ЮВ 3 10 км слаб. ливневой дождь 9/9 480 м
[]
+13.6 +13.1 97 +12 +12 1014.9 1004.2
03 14.06 ЮВ 2
{11}
15 км в посл. час морось {ливн. осадки, дождь} 4/0
[]
+12.5 +12.0 97 +11 +11 1015.0 1004.3
04 14.06 ЮВ 3 26 км 1/0
[]
+12.1 +10.8 92 +10 +11 1015.5 1004.8
05 14.06 Ю 4 25 км 1/0 2000 м
[]
+13.4 +11.6 89 +12 +13 1015.7 1005.1
06 14.06 Ю 4
{11}
30 км {ливн. осадки, дождь} ясно +15.5 +12.9 84 +14 +17 1016.1 1005.5 +11.7 +18.6
07 14.06 Ю 5 35 км ясно +17.4 +12.8 74 +17 +21 1016.5 1005.9
08 14.06 Ю 5 35 км ясно +18.4 +12.5 68 +19 +24 1017.0 1006.5
09 14.06 Ю 5 30 км 1/1 1140 м
[]
+19.4 +12.1 63 +20 +26 1017.3 1006.8
10 14.06 Ю 5 35 км 4/4 1170 м
[]
+19.8 +13.0 65 +21 +26 комфорт 1017.4 1007.0
11 14.06 Ю 4 30 км 1/1 1260 м
[]
+20.3 +12.5 61 +22 +32 комфорт 1017.5 1007.1
12 14.06 Ю 4 35 км 1/1 1300 м
[]
+21.3 +13.3 60 +24 +33 комфорт 1017.5 1007.1
13 14.06 Ю 4 30 км 1/1 1260 м
[]
+21.9 +14.0 61 +25 +34 комфорт 1017.6 1007.3
14 14.06 ЮВ 4 30 км 1/0 2000 м
[]
+20.5 +13.2 63 +23 +31 комфорт 1017.4 1006.9
15 14.06 ЮВ 3 35 км в посл. час морось {ливн. осадки, дождь} 9/9 1000 м
[]
+18.8 +14.0 74 +20 +21 1017.2 1006.7
16 14.06 З 3 16 км слаб. дождь 9/9 1500 м
[]
+16.8 +14.8 88 +17 +17 1018.5 1007.9
17 14.06 В 4 22 км слаб. ливневой дождь 6/6 900 м
[]
+14.4 +13.9 97 +13 +14 1018.2 1007.5
18 14.06 В 4 28 км в посл. час морось {ливн. осадки, дождь} 9/0
[]
+16.2 +14.1 87 +15 +16 1017.7 1007.1 +14.3 +21.9
19 14.06 В 3 30 км ясно +15.0 +13.7 92 +14 +14 1017.7 1007.0
20 14.06 В 4 35 км ясно +14.1 +13.3 95 +13 +13 1017.8 1007.2
21 14.06 В 4 35 км ясно +14.1 +13.1 94 +13 +13 1018.1 1007.5
22 14.06 ЮВ 3 26 км ясно +13.8 +12.9 94 +13 +13 1017.9 1007.2
23 14.06 ЮВ 3 30 км ясно +13.7 +12.5 92 +12 +12 1017.5 1006.8
00 15.06 ЮВ 2 40 км ясно +13.2 +11.6 90 +12 +12 1017.3 1006.6
01 15.06 В 2 18 км ясно +12.1 +11.2 94 +11 +11 1017.1 1006.3
02 15.06 СВ 3 11 км ясно +11.0 +10.8 99 +9 +9 1016.7 1005.9
03 15.06 СВ 4 15 км ясно +12.0 +11.7 98 +10 +10 1016.2 1005.5
04 15.06 СВ 3 7000 м дымка 1/0 2000 м
[]
+13.1 +12.9 99 +12 +12 1015.8 1005.1
05 15.06 СВ 4 10 км 1/0
[]
+14.8 +14.7 99 +14 +15 1015.2 1004.6
06 15.06 В 5 26 км {дымка} ясно +17.0 +15.1 89 +16 +19 1014.5 1004.0 +10.7 +17.1
07 15.06 В 6 30 км 1/0
[]
+17.6 +14.5 82 +17 +20 1014.4 1003.9
08 15.06 В 4 29 км 4/0
[]
+17.4 +15.2 87 +17 +22 1014.0 1003.5
09 15.06 В 3 17 км слаб. дождь {морось} 6/6 1230 м
[]
+17.2 +15.8 91 +17 +22 1014.4 1003.9
10 15.06 ЮВ 2 18 км слаб. дождь {морось} 9/9 1110 м
[]
+17.7 +16.6 93 +18 +20 1013.8 1003.3
11 15.06 СВ 4 14 км слаб. ливневой дождь 4/4 1440 м
[]
+17.7 +16.9 95 +18 +24 1013.2 1002.7
12 15.06 В 3 10 км слаб. ливневой дождь 9/9 960 м
[]
+17.6 +16.8 95 +18 +19 1013.2 1002.7
13 15.06 ЮВ 4 18 км слаб. дождь 9/9 870 м
[]
+16.7 +14.1 85 +16 +17 1013.9 1003.3
14 15.06 В 5 30 км в посл. час дождь 4/0
[]
+17.5 +13.0 75 +17 +22 1013.4 1002.8
15 15.06 В 7 35 км {ливн. осадки, дождь} 1/0
[]
+17.7 +12.3 71 +17 +20 1012.6 1002.1
16 15.06 В 5 29 км 9/0 2000 м
[]
+17.8 +12.4 71 +17 +19 1012.8 1002.4
17 15.06 В 5 30 км 9/9 1500 м
[]
+16.5 +11.9 74 +16 +16 1012.5 1002.0
18 15.06 В 4 30 км {ливн. осадки, дождь} 9/9 1380 м
[]
+16.1 +12.2 78 +15 +15 1012.5 1002.0 +16.1 +18.6
19 15.06 В 3 35 км 9/9 1500 м
[]
+15.3 +12.8 85 +15 +15 1011.5 1001.0
20 15.06 В 4 35 км 9/9 870 м
[]
+15.2 +12.5 84 +14 +14 1011.9 1001.3
21 15.06 В 5 35 км 10/10 960 м
[]
+15.2 +12.6 84 +14 +14 1012.1 1001.5
22 15.06 В 3 35 км 10/10 870 м
[]
+15.1 +13.1 88 +15 +15 1012.2 1001.6

 

Местоположение метеостанции Хальд V (Дания): широта 56.57 долгота 10.10 высота над уровнем моря 89 м.

В архиве по умолчанию представлена погода в Хальде V за последнюю неделю. Архивные данные за месяц целиком и за предыдущие месяцы, начиная с января 2011 года, Вы можете получить, выбрав интересующий диапазон дат из раскрывающегося списка и нажав кнопку "Ввод!".


*Определитесь, кто Вы:
робот инопланетянин человек

Внимание! Время в таблицах - всемирное. Для получения местного времени необходимо прибавить поправку, которая равна 1 ч.

Смотрите также архив погоды в соседних городах и на ближайших метеорологических станциях:

Погода в Фоулуме (Дания) (33 км)
Погода в Алеструпе (Дания) (42 км)
Погода в Тирструпе (Дания) (43 км)
Погода в Орхусе (Дания) (55 км)
Погода на Мысе Sletterhage (Дания) (58 км)
Погода в Ольборге (Дания) (61 км)
Погода в Карупе (Дания) (67 км)
Погода в Тылструпе (Дания) (68 км)
Погода в Исенваде (Дания) (78 км)
Погода в Исенваде (Дания) (78 км)

Пояснения к столбцам:

Ветер - указаны скорость ветра в м/с - средняя за 10 мин, порывы в срок и между сроками (в фигурных скобках) и направление, откуда дует ветер: С - северный, СВ - северо-восточный, В - восточный, ЮВ - юго-восточный, Ю - южный, ЮЗ - юго-западный, З - западный, СЗ - северо-западный.
Видимость - горизонтальная дальность видимости в метрах или километрах. При видимости от 1 до 10 км при отсутствии осадков обычно наблюдается дымка, при ухудшении видимости до 1 км и менее - туман. В сухую погоду видимость может ухудшаться дымом, пылью или мглою.
Явления - указаны атмосферные явления, наблюдавшиеся в срок или в последний час перед сроком; фигурными скобками обозначены явления, наблюдавшиеся между сроками (за 1-3 часа до срока); квадратными скобками обозначены град или гололедные отложения с указанием их диаметра в мм.
Облачность - указаны через наклонную черту общая и нижняя облачность в баллах и высота нижней границы облаков в метрах; квадратными скобками обозначены формы облаков: Ci - перистые, Cs - перисто-слоистые, Cc - перисто-кучевые, Ac - высококучевые, As - высокослоистые, Sc - слоисто-кучевые, Ns - слоисто-дождевые, Cu - кучевые, Cb - кучево-дождевые. Подробнее классификацию облаков см. в Атласе облаков (PDF).
T - Температура воздуха - температура, измеренная на высоте 2 м над землей.
Td - Температура точки росы - температура, при понижении до которой содержащийся в воздухе водяной пар достигнет насыщения.
f - Относительная влажность воздуха - влажноcть воздуха, измеренная на высоте 2 м над землей.
Te - Эффективная температура - температура, которую ощущает одетый по сезону человек в тени. Характеристика душности погоды. При расчете учитывается влияние влажности воздуха и скорости ветра на теплоощущения человека.
Tes - Эффективная температура на солнце - температура, которую ощущает человек, с поправкой на солнечный нагрев. Характеристика знойности погоды. Зависит от высоты солнца над горизонтом, облачности и скорости ветра. Ночью, в пасмурную погоду, а также при ветре 12 м/с и более поправка равна нулю.
P - Атмосферное давление - приведенное к уровню моря атмосферное давление.
Po - Атмосферное давление - измеренное на уровне метеостанции атмосферное давление.
Tmin - Минимальная температура - минимум температуры воздуха на высоте 2 м над землей.
Tmax - Максимальная температура - максимум температуры воздуха на высоте 2 м над землей.
R - Количество осадков - Количество выпавших осадков за период времени, мм. При наведении курсора мыши на число - период времени, за который выпало указанное количество осадков.
R24 - Количество осадков - Количество выпавших осадков за 24 часа, мм.
S - Снежный покров - Высота снежного покрова, см. При наведении курсора мыши на число - состояние снежного покрова и степень покрытия местности в баллах.